<?xml version="1.0" encoding="UTF-8" standalone="no" ?>
<gpx xmlns="http://www.topografix.com/GPX/1/1" xmlns:xsi="http://www.w3.org/2001/XMLSchema-instance" xsi:schemaLocation="http://www.topografix.com/GPX/1/1 http://www.topografix.com/GPX/1/1/gpx.xsd" version="1.1" creator="VisuGPX - https://www.visugpx.com">
  <metadata>
    <name>CalvaireMarkstein</name>
  </metadata>
  <trk>
    <name><![CDATA[CalvaireMarkstein]]></name>
    <trkseg>
      <trkpt lat="48.13648" lon="7.08874">
        <ele>1142</ele>
        <time>2006-08-08T18:54:26Z</time>
      </trkpt>
      <trkpt lat="48.13631" lon="7.0941">
        <ele>1146</ele>
        <time>2006-08-08T18:54:26Z</time>
      </trkpt>
      <trkpt lat="48.13564" lon="7.09498">
        <ele>1141</ele>
        <time>2006-08-08T18:54:26Z</time>
      </trkpt>
      <trkpt lat="48.13415" lon="7.09418">
        <ele>1115</ele>
        <time>2006-08-08T18:54:26Z</time>
      </trkpt>
      <trkpt lat="48.13342" lon="7.0931">
        <ele>1106</ele>
        <time>2006-08-08T18:54:26Z</time>
      </trkpt>
      <trkpt lat="48.12968" lon="7.09323">
        <ele>1119</ele>
        <time>2006-08-08T18:54:26Z</time>
      </trkpt>
      <trkpt lat="48.12682" lon="7.09587">
        <ele>1105</ele>
        <time>2006-08-08T18:54:26Z</time>
      </trkpt>
      <trkpt lat="48.12744" lon="7.09633">
        <ele>1105</ele>
        <time>2006-08-08T18:54:26Z</time>
      </trkpt>
      <trkpt lat="48.12718" lon="7.09704">
        <ele>1095</ele>
        <time>2006-08-08T18:54:26Z</time>
      </trkpt>
      <trkpt lat="48.12788" lon="7.09765">
        <ele>1086</ele>
        <time>2006-08-08T18:54:26Z</time>
      </trkpt>
      <trkpt lat="48.12718" lon="7.09819">
        <ele>1075</ele>
        <time>2006-08-08T18:54:26Z</time>
      </trkpt>
      <trkpt lat="48.12795" lon="7.09933">
        <ele>1063</ele>
        <time>2006-08-08T18:54:26Z</time>
      </trkpt>
      <trkpt lat="48.12736" lon="7.09942">
        <ele>1059</ele>
        <time>2006-08-08T18:54:26Z</time>
      </trkpt>
      <trkpt lat="48.12552" lon="7.09689">
        <ele>1056</ele>
        <time>2006-08-08T18:54:26Z</time>
      </trkpt>
      <trkpt lat="48.12498" lon="7.09705">
        <ele>1054</ele>
        <time>2006-08-08T18:54:26Z</time>
      </trkpt>
      <trkpt lat="48.12371" lon="7.09834">
        <ele>1040</ele>
        <time>2006-08-08T18:54:26Z</time>
      </trkpt>
      <trkpt lat="48.12337" lon="7.1">
        <ele>1024</ele>
        <time>2006-08-08T18:54:26Z</time>
      </trkpt>
      <trkpt lat="48.12297" lon="7.09983">
        <ele>1023</ele>
        <time>2006-08-08T18:54:26Z</time>
      </trkpt>
      <trkpt lat="48.12241" lon="7.09809">
        <ele>1039</ele>
        <time>2006-08-08T18:54:26Z</time>
      </trkpt>
      <trkpt lat="48.12164" lon="7.09816">
        <ele>1042</ele>
        <time>2006-08-08T18:54:26Z</time>
      </trkpt>
      <trkpt lat="48.12104" lon="7.09958">
        <ele>1045</ele>
        <time>2006-08-08T18:54:26Z</time>
      </trkpt>
      <trkpt lat="48.12115" lon="7.10134">
        <ele>1031</ele>
        <time>2006-08-08T18:54:26Z</time>
      </trkpt>
      <trkpt lat="48.12075" lon="7.10245">
        <ele>1034</ele>
        <time>2006-08-08T18:54:26Z</time>
      </trkpt>
      <trkpt lat="48.12137" lon="7.106">
        <ele>1028</ele>
        <time>2006-08-08T18:54:26Z</time>
      </trkpt>
      <trkpt lat="48.12047" lon="7.10693">
        <ele>1021</ele>
        <time>2006-08-08T18:54:26Z</time>
      </trkpt>
      <trkpt lat="48.1188" lon="7.10597">
        <ele>1016</ele>
        <time>2006-08-08T18:54:26Z</time>
      </trkpt>
      <trkpt lat="48.11761" lon="7.10317">
        <ele>1033</ele>
        <time>2006-08-08T18:54:26Z</time>
      </trkpt>
      <trkpt lat="48.11668" lon="7.09946">
        <ele>1049</ele>
        <time>2006-08-08T18:54:26Z</time>
      </trkpt>
      <trkpt lat="48.11541" lon="7.09968">
        <ele>1029</ele>
        <time>2006-08-08T18:54:26Z</time>
      </trkpt>
      <trkpt lat="48.11484" lon="7.1003">
        <ele>1023</ele>
        <time>2006-08-08T18:54:26Z</time>
      </trkpt>
      <trkpt lat="48.11648" lon="7.10321">
        <ele>1000</ele>
        <time>2006-08-08T18:54:26Z</time>
      </trkpt>
      <trkpt lat="48.11713" lon="7.10508">
        <ele>984</ele>
        <time>2006-08-08T18:54:26Z</time>
      </trkpt>
      <trkpt lat="48.11535" lon="7.10344">
        <ele>969</ele>
        <time>2006-08-08T18:54:26Z</time>
      </trkpt>
      <trkpt lat="48.114" lon="7.10325">
        <ele>963</ele>
        <time>2006-08-08T18:54:26Z</time>
      </trkpt>
      <trkpt lat="48.11298" lon="7.10195">
        <ele>951</ele>
        <time>2006-08-08T18:54:26Z</time>
      </trkpt>
      <trkpt lat="48.11269" lon="7.1001">
        <ele>955</ele>
        <time>2006-08-08T18:54:26Z</time>
      </trkpt>
      <trkpt lat="48.11228" lon="7.10013">
        <ele>949</ele>
        <time>2006-08-08T18:54:26Z</time>
      </trkpt>
      <trkpt lat="48.11215" lon="7.10127">
        <ele>956</ele>
        <time>2006-08-08T18:54:26Z</time>
      </trkpt>
      <trkpt lat="48.11063" lon="7.10308">
        <ele>970</ele>
        <time>2006-08-08T18:54:26Z</time>
      </trkpt>
      <trkpt lat="48.10782" lon="7.1035">
        <ele>971</ele>
        <time>2006-08-08T18:54:26Z</time>
      </trkpt>
      <trkpt lat="48.10589" lon="7.10332">
        <ele>977</ele>
        <time>2006-08-08T18:54:26Z</time>
      </trkpt>
      <trkpt lat="48.104" lon="7.1045">
        <ele>969</ele>
        <time>2006-08-08T18:54:26Z</time>
      </trkpt>
      <trkpt lat="48.10254" lon="7.10604">
        <ele>961</ele>
        <time>2006-08-08T18:54:26Z</time>
      </trkpt>
      <trkpt lat="48.10093" lon="7.10684">
        <ele>973</ele>
        <time>2006-08-08T18:54:26Z</time>
      </trkpt>
      <trkpt lat="48.09733" lon="7.10564">
        <ele>969</ele>
        <time>2006-08-08T18:54:26Z</time>
      </trkpt>
      <trkpt lat="48.09733" lon="7.10234">
        <ele>962</ele>
        <time>2006-08-08T18:54:26Z</time>
      </trkpt>
      <trkpt lat="48.09484" lon="7.09593">
        <ele>969</ele>
        <time>2006-08-08T18:54:26Z</time>
      </trkpt>
      <trkpt lat="48.09578" lon="7.09057">
        <ele>952</ele>
        <time>2006-08-08T18:54:26Z</time>
      </trkpt>
      <trkpt lat="48.0979" lon="7.08612">
        <ele>950</ele>
        <time>2006-08-08T18:54:26Z</time>
      </trkpt>
      <trkpt lat="48.09627" lon="7.08739">
        <ele>934</ele>
        <time>2006-08-08T18:54:26Z</time>
      </trkpt>
      <trkpt lat="48.09595" lon="7.08635">
        <ele>930</ele>
        <time>2006-08-08T18:54:26Z</time>
      </trkpt>
      <trkpt lat="48.09484" lon="7.08605">
        <ele>915</ele>
        <time>2006-08-08T18:54:26Z</time>
      </trkpt>
      <trkpt lat="48.09477" lon="7.08665">
        <ele>906</ele>
        <time>2006-08-08T18:54:26Z</time>
      </trkpt>
      <trkpt lat="48.09366" lon="7.0852">
        <ele>904</ele>
        <time>2006-08-08T18:54:26Z</time>
      </trkpt>
      <trkpt lat="48.09354" lon="7.08371">
        <ele>912</ele>
        <time>2006-08-08T18:54:26Z</time>
      </trkpt>
      <trkpt lat="48.09293" lon="7.08319">
        <ele>916</ele>
        <time>2006-08-08T18:54:26Z</time>
      </trkpt>
      <trkpt lat="48.08957" lon="7.0849">
        <ele>923</ele>
        <time>2006-08-08T18:54:26Z</time>
      </trkpt>
      <trkpt lat="48.08766" lon="7.0809">
        <ele>955</ele>
        <time>2006-08-08T18:54:26Z</time>
      </trkpt>
      <trkpt lat="48.08825" lon="7.0786">
        <ele>967</ele>
        <time>2006-08-08T18:54:26Z</time>
      </trkpt>
      <trkpt lat="48.0897" lon="7.07711">
        <ele>984</ele>
        <time>2006-08-08T18:54:26Z</time>
      </trkpt>
      <trkpt lat="48.08974" lon="7.07611">
        <ele>974</ele>
        <time>2006-08-08T18:54:26Z</time>
      </trkpt>
      <trkpt lat="48.0909" lon="7.07433">
        <ele>963</ele>
        <time>2006-08-08T18:54:26Z</time>
      </trkpt>
      <trkpt lat="48.08909" lon="7.07329">
        <ele>979</ele>
        <time>2006-08-08T18:54:26Z</time>
      </trkpt>
      <trkpt lat="48.08651" lon="7.0736">
        <ele>978</ele>
        <time>2006-08-08T18:54:26Z</time>
      </trkpt>
      <trkpt lat="48.08605" lon="7.06952">
        <ele>1010</ele>
        <time>2006-08-08T18:54:26Z</time>
      </trkpt>
      <trkpt lat="48.08614" lon="7.06617">
        <ele>1024</ele>
        <time>2006-08-08T18:54:26Z</time>
      </trkpt>
      <trkpt lat="48.08644" lon="7.06539">
        <ele>1043</ele>
        <time>2006-08-08T18:54:26Z</time>
      </trkpt>
      <trkpt lat="48.08599" lon="7.06535">
        <ele>1034</ele>
        <time>2006-08-08T18:54:26Z</time>
      </trkpt>
      <trkpt lat="48.08581" lon="7.06426">
        <ele>1041</ele>
        <time>2006-08-08T18:54:26Z</time>
      </trkpt>
      <trkpt lat="48.08671" lon="7.06326">
        <ele>1055</ele>
        <time>2006-08-08T18:54:26Z</time>
      </trkpt>
      <trkpt lat="48.08602" lon="7.06361">
        <ele>1050</ele>
        <time>2006-08-08T18:54:26Z</time>
      </trkpt>
      <trkpt lat="48.08586" lon="7.06184">
        <ele>1062</ele>
        <time>2006-08-08T18:54:26Z</time>
      </trkpt>
      <trkpt lat="48.08522" lon="7.06091">
        <ele>1054</ele>
        <time>2006-08-08T18:54:26Z</time>
      </trkpt>
      <trkpt lat="48.08526" lon="7.06011">
        <ele>1064</ele>
        <time>2006-08-08T18:54:26Z</time>
      </trkpt>
      <trkpt lat="48.08471" lon="7.06019">
        <ele>1060</ele>
        <time>2006-08-08T18:54:26Z</time>
      </trkpt>
      <trkpt lat="48.08409" lon="7.06121">
        <ele>1043</ele>
        <time>2006-08-08T18:54:26Z</time>
      </trkpt>
      <trkpt lat="48.08304" lon="7.06152">
        <ele>1033</ele>
        <time>2006-08-08T18:54:26Z</time>
      </trkpt>
      <trkpt lat="48.08347" lon="7.06203">
        <ele>1023</ele>
        <time>2006-08-08T18:54:26Z</time>
      </trkpt>
      <trkpt lat="48.08228" lon="7.06246">
        <ele>1016</ele>
        <time>2006-08-08T18:54:26Z</time>
      </trkpt>
      <trkpt lat="48.08083" lon="7.06717">
        <ele>1014</ele>
        <time>2006-08-08T18:54:26Z</time>
      </trkpt>
      <trkpt lat="48.07999" lon="7.06891">
        <ele>1027</ele>
        <time>2006-08-08T18:54:26Z</time>
      </trkpt>
      <trkpt lat="48.07869" lon="7.06987">
        <ele>1043</ele>
        <time>2006-08-08T18:54:26Z</time>
      </trkpt>
      <trkpt lat="48.07619" lon="7.0728">
        <ele>1045</ele>
        <time>2006-08-08T18:54:26Z</time>
      </trkpt>
      <trkpt lat="48.07464" lon="7.07085">
        <ele>1046</ele>
        <time>2006-08-08T18:54:26Z</time>
      </trkpt>
      <trkpt lat="48.0747" lon="7.06373">
        <ele>1060</ele>
        <time>2006-08-08T18:54:26Z</time>
      </trkpt>
      <trkpt lat="48.07548" lon="7.06239">
        <ele>1066</ele>
        <time>2006-08-08T18:54:26Z</time>
      </trkpt>
      <trkpt lat="48.07562" lon="7.05891">
        <ele>1036</ele>
        <time>2006-08-08T18:54:26Z</time>
      </trkpt>
      <trkpt lat="48.07427" lon="7.06107">
        <ele>1030</ele>
        <time>2006-08-08T18:54:26Z</time>
      </trkpt>
      <trkpt lat="48.07302" lon="7.05975">
        <ele>983</ele>
        <time>2006-08-08T18:54:26Z</time>
      </trkpt>
      <trkpt lat="48.07379" lon="7.05861">
        <ele>991</ele>
        <time>2006-08-08T18:54:26Z</time>
      </trkpt>
      <trkpt lat="48.07169" lon="7.05587">
        <ele>1001</ele>
        <time>2006-08-08T18:54:26Z</time>
      </trkpt>
      <trkpt lat="48.07195" lon="7.05051">
        <ele>1024</ele>
        <time>2006-08-08T18:54:26Z</time>
      </trkpt>
      <trkpt lat="48.0715" lon="7.04832">
        <ele>1018</ele>
        <time>2006-08-08T18:54:26Z</time>
      </trkpt>
      <trkpt lat="48.07132" lon="7.05046">
        <ele>998</ele>
        <time>2006-08-08T18:54:26Z</time>
      </trkpt>
      <trkpt lat="48.06975" lon="7.05704">
        <ele>938</ele>
        <time>2006-08-08T18:54:26Z</time>
      </trkpt>
      <trkpt lat="48.06999" lon="7.05786">
        <ele>933</ele>
        <time>2006-08-08T18:54:26Z</time>
      </trkpt>
      <trkpt lat="48.06892" lon="7.05649">
        <ele>919</ele>
        <time>2006-08-08T18:54:26Z</time>
      </trkpt>
      <trkpt lat="48.0689" lon="7.05011">
        <ele>894</ele>
        <time>2006-08-08T18:54:26Z</time>
      </trkpt>
      <trkpt lat="48.06825" lon="7.05401">
        <ele>878</ele>
        <time>2006-08-08T18:54:26Z</time>
      </trkpt>
      <trkpt lat="48.06686" lon="7.05711">
        <ele>862</ele>
        <time>2006-08-08T18:54:26Z</time>
      </trkpt>
      <trkpt lat="48.0673" lon="7.05312">
        <ele>838</ele>
        <time>2006-08-08T18:54:26Z</time>
      </trkpt>
      <trkpt lat="48.06701" lon="7.05229">
        <ele>834</ele>
        <time>2006-08-08T18:54:26Z</time>
      </trkpt>
      <trkpt lat="48.06495" lon="7.05325">
        <ele>812</ele>
        <time>2006-08-08T18:54:26Z</time>
      </trkpt>
      <trkpt lat="48.06167" lon="7.05631">
        <ele>777</ele>
        <time>2006-08-08T18:54:26Z</time>
      </trkpt>
      <trkpt lat="48.05966" lon="7.05714">
        <ele>750</ele>
        <time>2006-08-08T18:54:26Z</time>
      </trkpt>
      <trkpt lat="48.05876" lon="7.05598">
        <ele>730</ele>
        <time>2006-08-08T18:54:26Z</time>
      </trkpt>
      <trkpt lat="48.05842" lon="7.05327">
        <ele>755</ele>
        <time>2006-08-08T18:54:26Z</time>
      </trkpt>
      <trkpt lat="48.05867" lon="7.05154">
        <ele>773</ele>
        <time>2006-08-08T18:54:26Z</time>
      </trkpt>
      <trkpt lat="48.05696" lon="7.04803">
        <ele>772</ele>
        <time>2006-08-08T18:54:26Z</time>
      </trkpt>
      <trkpt lat="48.05649" lon="7.04631">
        <ele>793</ele>
        <time>2006-08-08T18:54:26Z</time>
      </trkpt>
      <trkpt lat="48.05573" lon="7.0451">
        <ele>801</ele>
        <time>2006-08-08T18:54:26Z</time>
      </trkpt>
      <trkpt lat="48.05577" lon="7.04288">
        <ele>827</ele>
        <time>2006-08-08T18:54:26Z</time>
      </trkpt>
      <trkpt lat="48.05547" lon="7.04131">
        <ele>816</ele>
        <time>2006-08-08T18:54:26Z</time>
      </trkpt>
      <trkpt lat="48.05666" lon="7.0388">
        <ele>809</ele>
        <time>2006-08-08T18:54:26Z</time>
      </trkpt>
      <trkpt lat="48.05674" lon="7.03545">
        <ele>777</ele>
        <time>2006-08-08T18:54:26Z</time>
      </trkpt>
      <trkpt lat="48.05605" lon="7.03491">
        <ele>771</ele>
        <time>2006-08-08T18:54:26Z</time>
      </trkpt>
      <trkpt lat="48.05475" lon="7.03567">
        <ele>753</ele>
        <time>2006-08-08T18:54:26Z</time>
      </trkpt>
      <trkpt lat="48.05543" lon="7.03681">
        <ele>746</ele>
        <time>2006-08-08T18:54:26Z</time>
      </trkpt>
      <trkpt lat="48.0542" lon="7.04046">
        <ele>714</ele>
        <time>2006-08-08T18:54:26Z</time>
      </trkpt>
      <trkpt lat="48.05453" lon="7.03794">
        <ele>707</ele>
        <time>2006-08-08T18:54:26Z</time>
      </trkpt>
      <trkpt lat="48.05206" lon="7.03657">
        <ele>699</ele>
        <time>2006-08-08T18:54:26Z</time>
      </trkpt>
      <trkpt lat="48.04835" lon="7.03933">
        <ele>747</ele>
        <time>2006-08-08T18:54:26Z</time>
      </trkpt>
      <trkpt lat="48.04765" lon="7.04088">
        <ele>761</ele>
        <time>2006-08-08T18:54:26Z</time>
      </trkpt>
      <trkpt lat="48.04751" lon="7.04006">
        <ele>777</ele>
        <time>2006-08-08T18:54:26Z</time>
      </trkpt>
      <trkpt lat="48.04664" lon="7.04368">
        <ele>800</ele>
        <time>2006-08-08T18:54:26Z</time>
      </trkpt>
      <trkpt lat="48.0466" lon="7.04925">
        <ele>818</ele>
        <time>2006-08-08T18:54:26Z</time>
      </trkpt>
      <trkpt lat="48.04571" lon="7.05011">
        <ele>817</ele>
        <time>2006-08-08T18:54:26Z</time>
      </trkpt>
      <trkpt lat="48.04425" lon="7.05052">
        <ele>825</ele>
        <time>2006-08-08T18:54:26Z</time>
      </trkpt>
      <trkpt lat="48.04262" lon="7.04856">
        <ele>865</ele>
        <time>2006-08-08T18:54:26Z</time>
      </trkpt>
      <trkpt lat="48.04143" lon="7.04899">
        <ele>879</ele>
        <time>2006-08-08T18:54:26Z</time>
      </trkpt>
      <trkpt lat="48.03923" lon="7.04765">
        <ele>906</ele>
        <time>2006-08-08T18:54:26Z</time>
      </trkpt>
      <trkpt lat="48.03888" lon="7.04621">
        <ele>922</ele>
        <time>2006-08-08T18:54:26Z</time>
      </trkpt>
      <trkpt lat="48.03818" lon="7.04581">
        <ele>928</ele>
        <time>2006-08-08T18:54:26Z</time>
      </trkpt>
      <trkpt lat="48.03796" lon="7.04666">
        <ele>942</ele>
        <time>2006-08-08T18:54:26Z</time>
      </trkpt>
      <trkpt lat="48.0401" lon="7.05518">
        <ele>953</ele>
        <time>2006-08-08T18:54:26Z</time>
      </trkpt>
      <trkpt lat="48.04002" lon="7.05598">
        <ele>954</ele>
        <time>2006-08-08T18:54:26Z</time>
      </trkpt>
      <trkpt lat="48.03967" lon="7.05447">
        <ele>967</ele>
        <time>2006-08-08T18:54:26Z</time>
      </trkpt>
      <trkpt lat="48.03464" lon="7.04738">
        <ele>995</ele>
        <time>2006-08-08T18:54:26Z</time>
      </trkpt>
      <trkpt lat="48.03413" lon="7.05022">
        <ele>983</ele>
        <time>2006-08-16T21:40:25Z</time>
      </trkpt>
      <trkpt lat="48.03245" lon="7.04704">
        <ele>954</ele>
        <time>2006-08-16T21:40:25Z</time>
      </trkpt>
      <trkpt lat="48.03282" lon="7.0458">
        <ele>970</ele>
        <time>2006-08-16T21:40:25Z</time>
      </trkpt>
      <trkpt lat="48.032" lon="7.04365">
        <ele>969</ele>
        <time>2006-08-16T21:40:25Z</time>
      </trkpt>
      <trkpt lat="48.02951" lon="7.04168">
        <ele>943</ele>
        <time>2006-08-16T21:40:25Z</time>
      </trkpt>
      <trkpt lat="48.0288" lon="7.04034">
        <ele>946</ele>
        <time>2006-08-16T21:40:25Z</time>
      </trkpt>
      <trkpt lat="48.02764" lon="7.0401">
        <ele>951</ele>
        <time>2006-08-16T21:40:25Z</time>
      </trkpt>
      <trkpt lat="48.02605" lon="7.0415">
        <ele>942</ele>
        <time>2006-08-16T21:40:25Z</time>
      </trkpt>
      <trkpt lat="48.02564" lon="7.04388">
        <ele>919</ele>
        <time>2006-08-16T21:40:25Z</time>
      </trkpt>
      <trkpt lat="48.02432" lon="7.04639">
        <ele>919</ele>
        <time>2006-08-16T21:40:25Z</time>
      </trkpt>
      <trkpt lat="48.02413" lon="7.04791">
        <ele>904</ele>
        <time>2006-08-16T21:40:25Z</time>
      </trkpt>
      <trkpt lat="48.022" lon="7.04826">
        <ele>906</ele>
        <time>2006-08-16T21:40:25Z</time>
      </trkpt>
      <trkpt lat="48.02162" lon="7.04749">
        <ele>918</ele>
        <time>2006-08-16T21:40:25Z</time>
      </trkpt>
      <trkpt lat="48.02189" lon="7.04523">
        <ele>938</ele>
        <time>2006-08-16T21:40:25Z</time>
      </trkpt>
      <trkpt lat="48.02409" lon="7.04428">
        <ele>954</ele>
        <time>2006-08-16T21:40:25Z</time>
      </trkpt>
      <trkpt lat="48.02473" lon="7.03964">
        <ele>978</ele>
        <time>2006-08-16T21:40:25Z</time>
      </trkpt>
      <trkpt lat="48.02369" lon="7.03747">
        <ele>968</ele>
        <time>2006-08-16T21:40:25Z</time>
      </trkpt>
      <trkpt lat="48.02347" lon="7.03416">
        <ele>970</ele>
        <time>2006-08-16T21:40:25Z</time>
      </trkpt>
      <trkpt lat="48.02402" lon="7.03259">
        <ele>975</ele>
        <time>2006-08-16T21:40:25Z</time>
      </trkpt>
      <trkpt lat="48.02583" lon="7.0302">
        <ele>995</ele>
        <time>2006-08-16T21:40:25Z</time>
      </trkpt>
      <trkpt lat="48.02743" lon="7.02961">
        <ele>990</ele>
        <time>2006-08-16T21:40:25Z</time>
      </trkpt>
      <trkpt lat="48.02604" lon="7.02942">
        <ele>972</ele>
        <time>2006-08-16T21:40:25Z</time>
      </trkpt>
      <trkpt lat="48.02909" lon="7.02767">
        <ele>946</ele>
        <time>2006-08-16T21:40:25Z</time>
      </trkpt>
      <trkpt lat="48.02517" lon="7.0288">
        <ele>924</ele>
        <time>2006-08-16T21:40:25Z</time>
      </trkpt>
      <trkpt lat="48.02225" lon="7.03425">
        <ele>891</ele>
        <time>2006-08-16T21:40:25Z</time>
      </trkpt>
      <trkpt lat="48.02211" lon="7.03645">
        <ele>888</ele>
        <time>2006-08-16T21:40:25Z</time>
      </trkpt>
      <trkpt lat="48.02273" lon="7.03892">
        <ele>900</ele>
        <time>2006-08-16T21:40:25Z</time>
      </trkpt>
      <trkpt lat="48.02109" lon="7.04046">
        <ele>917</ele>
        <time>2006-08-16T21:40:25Z</time>
      </trkpt>
      <trkpt lat="48.01919" lon="7.04069">
        <ele>905</ele>
        <time>2006-08-16T21:40:25Z</time>
      </trkpt>
      <trkpt lat="48.01829" lon="7.03974">
        <ele>889</ele>
        <time>2006-08-16T21:40:25Z</time>
      </trkpt>
      <trkpt lat="48.0169" lon="7.04049">
        <ele>861</ele>
        <time>2006-08-16T21:40:25Z</time>
      </trkpt>
      <trkpt lat="48.01551" lon="7.04278">
        <ele>828</ele>
        <time>2006-08-16T21:40:25Z</time>
      </trkpt>
      <trkpt lat="48.01614" lon="7.04391">
        <ele>818</ele>
        <time>2006-08-16T21:40:25Z</time>
      </trkpt>
      <trkpt lat="48.01491" lon="7.04293">
        <ele>807</ele>
        <time>2006-08-16T21:40:25Z</time>
      </trkpt>
      <trkpt lat="48.01545" lon="7.04526">
        <ele>799</ele>
        <time>2006-08-16T21:40:25Z</time>
      </trkpt>
      <trkpt lat="48.01411" lon="7.04608">
        <ele>788</ele>
        <time>2006-08-16T21:40:25Z</time>
      </trkpt>
      <trkpt lat="48.01353" lon="7.0471">
        <ele>777</ele>
        <time>2006-08-16T21:40:25Z</time>
      </trkpt>
      <trkpt lat="48.01406" lon="7.0495">
        <ele>748</ele>
        <time>2006-08-16T21:40:25Z</time>
      </trkpt>
      <trkpt lat="48.01549" lon="7.05211">
        <ele>703</ele>
        <time>2006-08-16T21:40:25Z</time>
      </trkpt>
      <trkpt lat="48.01659" lon="7.05268">
        <ele>694</ele>
        <time>2006-08-16T21:40:25Z</time>
      </trkpt>
      <trkpt lat="48.01891" lon="7.05778">
        <ele>650</ele>
        <time>2006-08-16T21:40:25Z</time>
      </trkpt>
      <trkpt lat="48.0203" lon="7.05791">
        <ele>636</ele>
        <time>2006-08-16T21:40:25Z</time>
      </trkpt>
      <trkpt lat="48.01925" lon="7.05943">
        <ele>608</ele>
        <time>2006-08-16T21:40:25Z</time>
      </trkpt>
      <trkpt lat="48.01756" lon="7.05887">
        <ele>593</ele>
        <time>2006-08-16T21:40:25Z</time>
      </trkpt>
      <trkpt lat="48.01634" lon="7.05675">
        <ele>575</ele>
        <time>2006-08-16T21:40:25Z</time>
      </trkpt>
      <trkpt lat="48.01528" lon="7.05632">
        <ele>559</ele>
        <time>2006-08-16T21:40:25Z</time>
      </trkpt>
      <trkpt lat="48.01247" lon="7.05318">
        <ele>537</ele>
        <time>2006-08-16T21:40:25Z</time>
      </trkpt>
      <trkpt lat="48.01138" lon="7.05248">
        <ele>513</ele>
        <time>2006-08-16T21:40:25Z</time>
      </trkpt>
      <trkpt lat="48.01084" lon="7.05129">
        <ele>511</ele>
        <time>2006-08-16T21:40:25Z</time>
      </trkpt>
      <trkpt lat="48.01075" lon="7.05229">
        <ele>501</ele>
        <time>2006-08-16T21:40:25Z</time>
      </trkpt>
      <trkpt lat="48.00899" lon="7.04575">
        <ele>513</ele>
        <time>2006-08-16T21:40:25Z</time>
      </trkpt>
      <trkpt lat="48.00878" lon="7.04305">
        <ele>522</ele>
        <time>2006-08-16T21:40:25Z</time>
      </trkpt>
      <trkpt lat="48.00738" lon="7.04098">
        <ele>521</ele>
        <time>2006-08-16T21:40:25Z</time>
      </trkpt>
      <trkpt lat="48.00716" lon="7.03854">
        <ele>526</ele>
        <time>2006-08-16T21:40:25Z</time>
      </trkpt>
      <trkpt lat="48.00529" lon="7.03468">
        <ele>526</ele>
        <time>2006-08-16T21:40:25Z</time>
      </trkpt>
      <trkpt lat="48.00414" lon="7.03304">
        <ele>529</ele>
        <time>2006-08-16T21:40:25Z</time>
      </trkpt>
      <trkpt lat="48.00388" lon="7.03382">
        <ele>528</ele>
        <time>2006-08-16T21:40:25Z</time>
      </trkpt>
      <trkpt lat="48.00315" lon="7.03201">
        <ele>532</ele>
        <time>2006-08-16T21:40:25Z</time>
      </trkpt>
      <trkpt lat="48.00267" lon="7.0315">
        <ele>535</ele>
        <time>2006-08-16T21:40:25Z</time>
      </trkpt>
      <trkpt lat="48.00072" lon="7.03072">
        <ele>562</ele>
        <time>2006-08-16T21:40:25Z</time>
      </trkpt>
      <trkpt lat="48.00046" lon="7.0272">
        <ele>564</ele>
        <time>2006-08-16T21:40:25Z</time>
      </trkpt>
      <trkpt lat="48.00099" lon="7.02638">
        <ele>574</ele>
        <time>2006-08-16T21:40:25Z</time>
      </trkpt>
      <trkpt lat="47.99588" lon="7.02217">
        <ele>596</ele>
        <time>2006-08-16T21:40:25Z</time>
      </trkpt>
      <trkpt lat="47.99259" lon="7.0212">
        <ele>603</ele>
        <time>2006-08-16T21:40:25Z</time>
      </trkpt>
      <trkpt lat="47.99124" lon="7.02115">
        <ele>606</ele>
        <time>2006-08-16T21:40:25Z</time>
      </trkpt>
      <trkpt lat="47.99049" lon="7.02068">
        <ele>610</ele>
        <time>2006-08-16T21:40:25Z</time>
      </trkpt>
      <trkpt lat="47.98923" lon="7.02084">
        <ele>614</ele>
        <time>2006-08-16T21:40:25Z</time>
      </trkpt>
      <trkpt lat="47.98763" lon="7.01902">
        <ele>622</ele>
        <time>2006-08-16T21:40:25Z</time>
      </trkpt>
      <trkpt lat="47.98567" lon="7.01844">
        <ele>634</ele>
        <time>2006-08-16T21:40:25Z</time>
      </trkpt>
      <trkpt lat="47.98449" lon="7.0176">
        <ele>636</ele>
        <time>2006-08-16T21:40:25Z</time>
      </trkpt>
      <trkpt lat="47.98328" lon="7.01756">
        <ele>647</ele>
        <time>2006-08-16T21:40:25Z</time>
      </trkpt>
      <trkpt lat="47.9827" lon="7.01845">
        <ele>650</ele>
        <time>2006-08-16T21:40:25Z</time>
      </trkpt>
      <trkpt lat="47.98203" lon="7.01819">
        <ele>657</ele>
        <time>2006-08-16T21:40:25Z</time>
      </trkpt>
      <trkpt lat="47.98193" lon="7.01865">
        <ele>663</ele>
        <time>2006-08-16T21:40:25Z</time>
      </trkpt>
      <trkpt lat="47.9845" lon="7.02196">
        <ele>674</ele>
        <time>2006-08-16T21:40:25Z</time>
      </trkpt>
      <trkpt lat="47.98678" lon="7.02337">
        <ele>692</ele>
        <time>2006-08-16T21:40:25Z</time>
      </trkpt>
      <trkpt lat="47.98973" lon="7.02632">
        <ele>706</ele>
        <time>2006-08-16T21:40:25Z</time>
      </trkpt>
      <trkpt lat="47.9894" lon="7.02776">
        <ele>724</ele>
        <time>2006-08-16T21:40:25Z</time>
      </trkpt>
      <trkpt lat="47.99098" lon="7.0277">
        <ele>736</ele>
        <time>2006-08-16T21:40:25Z</time>
      </trkpt>
      <trkpt lat="47.99358" lon="7.02901">
        <ele>758</ele>
        <time>2006-08-16T21:40:25Z</time>
      </trkpt>
      <trkpt lat="47.99599" lon="7.0307">
        <ele>777</ele>
        <time>2006-08-16T21:40:25Z</time>
      </trkpt>
      <trkpt lat="47.99128" lon="7.03035">
        <ele>820</ele>
        <time>2006-08-16T21:40:25Z</time>
      </trkpt>
      <trkpt lat="47.99024" lon="7.0316">
        <ele>841</ele>
        <time>2006-08-16T21:40:25Z</time>
      </trkpt>
      <trkpt lat="47.98888" lon="7.03168">
        <ele>852</ele>
        <time>2006-08-16T21:40:25Z</time>
      </trkpt>
      <trkpt lat="47.98667" lon="7.03296">
        <ele>874</ele>
        <time>2006-08-16T21:40:25Z</time>
      </trkpt>
      <trkpt lat="47.98624" lon="7.03238">
        <ele>874</ele>
        <time>2006-08-16T21:40:25Z</time>
      </trkpt>
      <trkpt lat="47.98612" lon="7.02969">
        <ele>895</ele>
        <time>2006-08-16T21:40:25Z</time>
      </trkpt>
      <trkpt lat="47.98481" lon="7.02749">
        <ele>910</ele>
        <time>2006-08-16T21:40:25Z</time>
      </trkpt>
      <trkpt lat="47.9836" lon="7.02752">
        <ele>929</ele>
        <time>2006-08-16T21:40:25Z</time>
      </trkpt>
      <trkpt lat="47.98242" lon="7.02889">
        <ele>948</ele>
        <time>2006-08-16T21:40:25Z</time>
      </trkpt>
      <trkpt lat="47.98428" lon="7.02852">
        <ele>952</ele>
        <time>2006-08-16T21:40:25Z</time>
      </trkpt>
      <trkpt lat="47.98298" lon="7.02947">
        <ele>975</ele>
        <time>2006-08-16T21:40:25Z</time>
      </trkpt>
      <trkpt lat="47.98067" lon="7.03309">
        <ele>1012</ele>
        <time>2006-08-16T21:40:25Z</time>
      </trkpt>
      <trkpt lat="47.97958" lon="7.03554">
        <ele>1057</ele>
        <time>2006-08-16T21:40:25Z</time>
      </trkpt>
      <trkpt lat="47.97754" lon="7.03704">
        <ele>1083</ele>
        <time>2006-08-16T21:40:25Z</time>
      </trkpt>
      <trkpt lat="47.9734" lon="7.03795">
        <ele>1125</ele>
        <time>2006-08-16T21:40:25Z</time>
      </trkpt>
      <trkpt lat="47.96891" lon="7.03983">
        <ele>1162</ele>
        <time>2006-08-16T21:40:25Z</time>
      </trkpt>
      <trkpt lat="47.96825" lon="7.03963">
        <ele>1171</ele>
        <time>2006-08-16T21:40:25Z</time>
      </trkpt>
      <trkpt lat="47.96797" lon="7.03867">
        <ele>1173</ele>
        <time>2006-08-16T21:40:25Z</time>
      </trkpt>
      <trkpt lat="47.96811" lon="7.03633">
        <ele>1168</ele>
        <time>2006-08-16T21:40:25Z</time>
      </trkpt>
      <trkpt lat="47.96743" lon="7.03413">
        <ele>1186</ele>
        <time>2006-08-16T21:40:25Z</time>
      </trkpt>
      <trkpt lat="47.96614" lon="7.03388">
        <ele>1201</ele>
        <time>2006-08-16T21:40:25Z</time>
      </trkpt>
      <trkpt lat="47.96396" lon="7.03523">
        <ele>1221</ele>
        <time>2006-08-16T21:40:25Z</time>
      </trkpt>
      <trkpt lat="47.96289" lon="7.03728">
        <ele>1245</ele>
        <time>2006-08-16T21:40:25Z</time>
      </trkpt>
      <trkpt lat="47.95973" lon="7.03746">
        <ele>1249</ele>
        <time>2006-08-16T21:40:25Z</time>
      </trkpt>
      <trkpt lat="47.95841" lon="7.03681">
        <ele>1245</ele>
        <time>2006-08-16T21:40:25Z</time>
      </trkpt>
      <trkpt lat="47.95619" lon="7.03487">
        <ele>1246</ele>
        <time>2006-08-16T21:40:25Z</time>
      </trkpt>
      <trkpt lat="47.95522" lon="7.03317">
        <ele>1242</ele>
        <time>2006-08-16T21:40:25Z</time>
      </trkpt>
      <trkpt lat="47.95272" lon="7.03369">
        <ele>1244</ele>
        <time>2006-08-16T21:40:25Z</time>
      </trkpt>
      <trkpt lat="47.95196" lon="7.03342">
        <ele>1245</ele>
        <time>2006-08-16T21:40:25Z</time>
      </trkpt>
      <trkpt lat="47.95131" lon="7.03624">
        <ele>1245</ele>
        <time>2006-08-16T21:40:25Z</time>
      </trkpt>
      <trkpt lat="47.94922" lon="7.04015">
        <ele>1226</ele>
        <time>2006-08-16T21:40:25Z</time>
      </trkpt>
      <trkpt lat="47.94837" lon="7.04443">
        <ele>1214</ele>
        <time>2006-08-16T21:40:25Z</time>
      </trkpt>
      <trkpt lat="47.94779" lon="7.04532">
        <ele>1208</ele>
        <time>2006-08-16T21:40:25Z</time>
      </trkpt>
      <trkpt lat="47.94761" lon="7.04436">
        <ele>1199</ele>
        <time>2006-08-16T21:40:25Z</time>
      </trkpt>
      <trkpt lat="47.94773" lon="7.04116">
        <ele>1195</ele>
        <time>2006-08-16T21:40:25Z</time>
      </trkpt>
      <trkpt lat="47.94699" lon="7.03847">
        <ele>1176</ele>
        <time>2006-08-16T21:40:25Z</time>
      </trkpt>
      <trkpt lat="47.94727" lon="7.03709">
        <ele>1175</ele>
        <time>2006-08-16T21:40:25Z</time>
      </trkpt>
      <trkpt lat="47.9478" lon="7.0362">
        <ele>1180</ele>
        <time>2006-08-16T21:40:25Z</time>
      </trkpt>
      <trkpt lat="47.94763" lon="7.03585">
        <ele>1178</ele>
        <time>2006-08-16T21:40:25Z</time>
      </trkpt>
      <trkpt lat="47.94696" lon="7.03572">
        <ele>1176</ele>
        <time>2006-08-16T21:40:25Z</time>
      </trkpt>
      <trkpt lat="47.94572" lon="7.03648">
        <ele>1166</ele>
        <time>2006-08-16T21:40:25Z</time>
      </trkpt>
      <trkpt lat="47.94514" lon="7.03623">
        <ele>1163</ele>
        <time>2006-08-16T21:40:25Z</time>
      </trkpt>
      <trkpt lat="47.94459" lon="7.0341">
        <ele>1168</ele>
        <time>2006-08-16T21:40:25Z</time>
      </trkpt>
      <trkpt lat="47.94494" lon="7.03346">
        <ele>1177</ele>
        <time>2006-08-16T21:40:25Z</time>
      </trkpt>
      <trkpt lat="47.94481" lon="7.03111">
        <ele>1178</ele>
        <time>2006-08-16T21:40:25Z</time>
      </trkpt>
      <trkpt lat="47.94337" lon="7.03091">
        <ele>1160</ele>
        <time>2006-08-16T21:40:25Z</time>
      </trkpt>
      <trkpt lat="47.94184" lon="7.0299">
        <ele>1152</ele>
        <time>2006-08-16T21:40:25Z</time>
      </trkpt>
      <trkpt lat="47.9406" lon="7.03368">
        <ele>1156</ele>
        <time>2006-08-16T21:40:25Z</time>
      </trkpt>
      <trkpt lat="47.93592" lon="7.03025">
        <ele>1133</ele>
        <time>2006-08-16T21:40:25Z</time>
      </trkpt>
      <trkpt lat="47.93569" lon="7.02936">
        <ele>1135</ele>
        <time>2006-08-16T21:40:25Z</time>
      </trkpt>
      <trkpt lat="47.93364" lon="7.02636">
        <ele>1132</ele>
        <time>2006-08-16T21:40:25Z</time>
      </trkpt>
      <trkpt lat="47.93269" lon="7.02554">
        <ele>1130</ele>
        <time>2006-08-16T21:40:25Z</time>
      </trkpt>
      <trkpt lat="47.93245" lon="7.02478">
        <ele>1135</ele>
        <time>2006-08-16T21:40:25Z</time>
      </trkpt>
      <trkpt lat="47.93046" lon="7.02373">
        <ele>1141</ele>
        <time>2006-08-16T21:40:25Z</time>
      </trkpt>
      <trkpt lat="47.93005" lon="7.02497">
        <ele>1145</ele>
        <time>2006-08-16T21:40:25Z</time>
      </trkpt>
      <trkpt lat="47.93004" lon="7.02651">
        <ele>1134</ele>
        <time>2006-08-16T21:40:25Z</time>
      </trkpt>
      <trkpt lat="47.92906" lon="7.02716">
        <ele>1147</ele>
        <time>2006-08-16T21:40:25Z</time>
      </trkpt>
      <trkpt lat="47.9288" lon="7.02935">
        <ele>1160</ele>
        <time>2006-08-16T21:40:25Z</time>
      </trkpt>
      <trkpt lat="47.92805" lon="7.03116">
        <ele>1155</ele>
        <time>2006-08-16T21:40:25Z</time>
      </trkpt>
      <trkpt lat="47.92494" lon="7.03235">
        <ele>1167</ele>
        <time>2006-08-16T21:40:25Z</time>
      </trkpt>
      <trkpt lat="47.92365" lon="7.03412">
        <ele>1172</ele>
        <time>2006-08-16T21:40:25Z</time>
      </trkpt>
      <trkpt lat="47.92352" lon="7.03498">
        <ele>1176</ele>
        <time>2006-08-16T21:40:25Z</time>
      </trkpt>
      <trkpt lat="47.92192" lon="7.03349">
        <ele>1170</ele>
        <time>2006-08-16T21:40:25Z</time>
      </trkpt>
    </trkseg>
  </trk>
</gpx>